This is the latest recevied weather packets stored in our database for station/object EB1GOD-1. If no packets are shown the sender has not sent any weather packets the latest 10 day(s).
| Time | Temp. | Humidity | Pressure | Rain* | Wind** | Luminosity | Snow |
|---|---|---|---|---|---|---|---|
| 1777925895 | 12.22° C | 75% | 1153.9 hPa | - | - | - | - |
| 1777924994 | 11.67° C | 75% | 1153.6 hPa | - | - | - | - |
| 1777924095 | 11.67° C | 74% | 1153.5 hPa | - | - | - | - |
| 1777923195 | 12.22° C | 77% | 1153.5 hPa | - | - | - | - |
| 1777922294 | 12.78° C | 73% | 1153.3 hPa | - | - | - | - |
| 1777921394 | 12.22° C | 76% | 1153.4 hPa | - | - | - | - |
| 1777920495 | 12.22° C | 74% | 1153.2 hPa | - | - | - | - |
| 1777919594 | 12.22° C | 75% | 1153.1 hPa | - | - | - | - |
| 1777918694 | 12.22° C | 74% | 1153.2 hPa | - | - | - | - |
| 1777917794 | 12.22° C | 75% | 1153.2 hPa | - | - | - | - |
| 1777916894 | 12.22° C | 74% | 1153.3 hPa | - | - | - | - |
| 1777915994 | 12.22° C | 77% | 1153.4 hPa | - | - | - | - |
| 1777915095 | 12.22° C | 74% | 1153.4 hPa | - | - | - | - |
| 1777914194 | 12.78° C | 79% | 1153.3 hPa | - | - | - | - |
| 1777913294 | 12.22° C | 81% | 1153.4 hPa | - | - | - | - |
| 1777912394 | 12.22° C | 81% | 1153.4 hPa | - | - | - | - |
| 1777911493 | 12.78° C | 77% | 1153.4 hPa | - | - | - | - |
| 1777910593 | 13.33° C | 75% | 1153.3 hPa | - | - | - | - |
| 1777909693 | 13.89° C | 74% | 1153.3 hPa | - | - | - | - |
| 1777908793 | 15° C | 71% | 1153.2 hPa | - | - | - | - |
| 1777907893 | 15.56° C | 73% | 1153.1 hPa | - | - | - | - |
| 1777906993 | 14.44° C | 78% | 1153.1 hPa | - | - | - | - |
| 1777906093 | 13.89° C | 72% | 1153.2 hPa | - | - | - | - |
| 1777905193 | 13.89° C | 73% | 1153.2 hPa | - | - | - | - |
| 1777904293 | 13.89° C | 72% | 1153.1 hPa | - | - | - | - |
* Rain since midnight (hover to see other rain measurements)
** Current wind speed in m/s (hover to see current wind gust speed)